Location: *
(44.3683°N, 6.6958°E)
Time: 13:18:24
(UTC+00:00)

Cosmos 482 Debris - Pass Details

Date: 14 October 2019
Orbit: 202 x 2323 km, 52.1° (Epoch: 13 November)

Event Time Altitude Azimuth Distance (km) Brightness Sun altitude
Rises 18:04:04 0° 300° (WNW) 3,633 9.7 -13.8°
Reaches altitude 10° 18:07:22 10° 303° (WNW) 2,296 8.4 -14.3°
Maximum altitude 18:12:19 59° 24° (NNE) 586 4.3 -15.2°
Enters shadow 18:13:33 34° 88° (E) 756 4.5 -15.4°
